| time (UTC) | temp F | wind direction | speed knots | gust knots | rain 1hr in | rain 24hr in | rain mn in | humidity % | barometer mb |
| 20260507073017 | 45 | 0 | 1.7 | 4.3 | 0.00 | 0.01 | 0.00 | 95 | 1012.5 |
| 20260507072017 | 45 | 338 | 2.6 | 4.3 | 0.00 | 0.01 | 0.00 | 95 | 1012.4 |
| 20260507071037 | 45 | 315 | 1.7 | 7.0 | 0.00 | 0.01 | 0.00 | 95 | 1012.4 |
| 20260507070017 | 44 | 338 | 1.7 | 5.2 | 0.00 | 0.01 | 0.00 | 95 | 1012.2 |
| 20260507065017 | 44 | 315 | 3.5 | 7.0 | 0.00 | 0.01 | 0.00 | 95 | 1012.1 |
| 20260507064058 | 45 | 338 | 2.6 | 7.8 | 0.00 | 0.01 | 0.00 | 95 | 1012.0 |
| 20260507063037 | 44 | 338 | 2.6 | 7.0 | 0.00 | 0.01 | 0.00 | 95 | 1012.0 |
| 20260507062017 | 44 | 315 | 4.3 | 7.8 | 0.00 | 0.01 | 0.00 | 95 | 1011.8 |
| 20260507061058 | 44 | 23 | 3.5 | 8.7 | 0.00 | 0.01 | 0.00 | 95 | 1011.8 |
| 20260507060016 | 44 | 315 | 2.6 | 5.2 | 0.00 | 0.01 | 0.00 | 95 | 1011.6 |
| 20260507055018 | 44 | 338 | 3.5 | 7.8 | 0.00 | 0.01 | 0.00 | 95 | 1011.5 |
| 20260507054018 | 44 | 338 | 1.7 | 4.3 | 0.00 | 0.01 | 0.00 | 95 | 1011.2 |
| 20260507053036 | 44 | 293 | 1.7 | 7.0 | 0.00 | 0.01 | 0.00 | 95 | 1011.1 |
| 20260507052018 | 44 | 315 | 2.6 | 6.1 | 0.00 | 0.01 | 0.00 | 95 | 1011.1 |
| 20260507051018 | 44 | 338 | 3.5 | 7.0 | 0.00 | 0.01 | 0.00 | 95 | 1011.0 |
| 20260507050016 | 44 | 0 | 3.5 | 7.0 | 0.00 | 0.01 | 0.00 | 95 | 1010.9 |
| 20260507045017 | 44 | 315 | 2.6 | 7.0 | 0.00 | 0.01 | 0.00 | 95 | 1010.8 |
| 20260507044016 | 44 | 338 | 2.6 | 8.7 | 0.00 | 0.01 | 0.00 | 95 | 1010.7 |
| 20260507043018 | 44 | 23 | 1.7 | 6.1 | 0.00 | 0.01 | 0.00 | 95 | 1010.6 |
| 20260507042036 | 44 | 0 | 2.6 | 7.8 | 0.00 | 0.01 | 0.00 | 95 | 1010.5 |
| 20260507041016 | 44 | 338 | 3.5 | 7.0 | 0.00 | 0.01 | 0.00 | 95 | 1010.4 |
| 20260507040016 | 45 | 315 | 3.5 | 7.0 | 0.00 | 0.01 | 0.00 | 95 | 1010.3 |
| 20260507035036 | 45 | 315 | 1.7 | 4.3 | 0.00 | 0.01 | 0.00 | 95 | 1010.3 |
| 20260507034036 | 45 | 338 | 3.5 | 7.0 | 0.00 | 0.01 | 0.00 | 95 | 1010.2 |
| 20260507033016 | 45 | 315 | 3.5 | 6.1 | 0.00 | 0.01 | 0.00 | 95 | 1010.3 |
| 20260507032016 | 45 | 338 | 2.6 | 7.0 | 0.00 | 0.02 | 0.00 | 95 | 1010.2 |
| 20260507031016 | 45 | 338 | 0.9 | 4.3 | 0.00 | 0.02 | 0.00 | 95 | 1010.2 |
| 20260507030016 | 45 | 315 | 2.6 | 5.2 | 0.00 | 0.02 | 0.00 | 95 | 1010.1 |
| 20260507025038 | 45 | 338 | 0.9 | 3.5 | 0.00 | 0.02 | 0.00 | 95 | 1010.1 |
| 20260507024016 | 45 | 338 | 3.5 | 7.0 | 0.00 | 0.02 | 0.00 | 95 | 1010.1 |
| 20260507023016 | 45 | 338 | 3.5 | 7.0 | 0.00 | 0.02 | 0.00 | 95 | 1010.1 |
| 20260507022016 | 45 | 315 | 3.5 | 7.8 | 0.00 | 0.02 | 0.00 | 95 | 1010.0 |
| 20260507021016 | 45 | 338 | 2.6 | 7.0 | 0.00 | 0.02 | 0.00 | 95 | 1009.9 |
| 20260507020016 | 45 | 0 | 2.6 | 5.2 | 0.00 | 0.02 | 0.00 | 95 | 1009.9 |
| 20260507015016 | 45 | 338 | 1.7 | 4.3 | 0.00 | 0.02 | 0.00 | 95 | 1009.8 |
| 20260507014016 | 45 | 315 | 1.7 | 5.2 | 0.00 | 0.02 | 0.00 | 95 | 1009.7 |
| 20260507013016 | 45 | 270 | 1.7 | 4.3 | 0.00 | 0.02 | 0.00 | 95 | 1009.6 |
| 20260507012016 | 45 | 338 | 1.7 | 5.2 | 0.00 | 0.02 | 0.00 | 95 | 1009.6 |
| 20260507011016 | 45 | 270 | 0.9 | 3.5 | 0.00 | 0.02 | 0.00 | 95 | 1009.6 |
| 20260507010016 | 45 | 338 | 1.7 | 5.2 | 0.00 | 0.02 | 0.00 | 95 | 1009.5 |
| 20260507005018 | 45 | 338 | 2.6 | 7.0 | 0.00 | 0.02 | 0.00 | 95 | 1009.4 |
| 20260507004016 | 45 | 338 | 2.6 | 7.0 | 0.00 | 0.02 | 0.00 | 95 | 1009.6 |
| 20260507003036 | 45 | 338 | 1.7 | 6.1 | 0.00 | 0.02 | 0.00 | 95 | 1009.5 |
| 20260507002016 | 45 | 0 | 3.5 | 7.8 | 0.00 | 0.02 | 0.00 | 95 | 1009.5 |
| 20260507001016 | 45 | 338 | 2.6 | 6.1 | 0.00 | 0.02 | 0.00 | 95 | 1009.5 |
| 20260507000017 | 45 | 0 | 3.5 | 7.0 | 0.00 | 0.02 | 0.00 | 95 | 1009.6 |
| 20260506235016 | 45 | 315 | 3.5 | 7.0 | 0.00 | 0.02 | 0.00 | 95 | 1009.5 |
| 20260506234016 | 45 | 338 | 2.6 | 4.3 | 0.00 | 0.02 | 0.00 | 95 | 1009.3 |
| 20260506233016 | 45 | 338 | 3.5 | 7.0 | 0.00 | 0.02 | 0.00 | 95 | 1009.4 |
| 20260506232016 | 45 | 0 | 3.5 | 8.7 | 0.00 | 0.02 | 0.00 | 95 | 1009.3 |
| 20260506231017 | 45 | 338 | 3.5 | 7.8 | 0.00 | 0.02 | 0.00 | 95 | 1009.2 |
| 20260506230017 | 45 | 0 | 2.6 | 6.1 | 0.00 | 0.02 | 0.00 | 95 | 1009.2 |
| 20260506225016 | 45 | 338 | 2.6 | 7.0 | 0.00 | 0.02 | 0.00 | 95 | 1009.2 |
| 20260506224038 | 45 | 315 | 2.6 | 7.8 | 0.00 | 0.02 | 0.00 | 95 | 1009.0 |
| 20260506223016 | 45 | 315 | 2.6 | 6.1 | 0.00 | 0.02 | 0.00 | 95 | 1008.9 |
| 20260506222016 | 45 | 315 | 1.7 | 4.3 | 0.00 | 0.02 | 0.00 | 95 | 1008.8 |
| 20260506221016 | 45 | 315 | 0.9 | 3.5 | 0.00 | 0.02 | 0.00 | 95 | 1008.8 |
| 20260506220037 | 45 | 338 | 0.9 | 4.3 | 0.00 | 0.02 | 0.02 | 95 | 1008.7 |
| 20260506215016 | 45 | 338 | 0.9 | 3.5 | 0.00 | 0.02 | 0.02 | 95 | 1008.7 |
| 20260506214016 | 45 | 338 | 1.7 | 7.0 | 0.00 | 0.02 | 0.02 | 94 | 1008.6 |
| 20260506213038 | 45 | 225 | 1.7 | 4.3 | 0.00 | 0.02 | 0.02 | 94 | 1008.5 |
| 20260506212016 | 45 | 315 | 1.7 | 5.2 | 0.00 | 0.02 | 0.02 | 94 | 1008.5 |
| 20260506211016 | 45 | 338 | 1.7 | 3.5 | 0.00 | 0.02 | 0.02 | 94 | 1008.5 |
| 20260506210017 | 45 | 338 | 1.7 | 7.0 | 0.00 | 0.02 | 0.02 | 94 | 1008.5 |
| 20260506205016 | 45 | 338 | 2.6 | 7.8 | 0.00 | 0.02 | 0.02 | 94 | 1008.4 |
| 20260506204018 | 46 | 315 | 3.5 | 9.6 | 0.00 | 0.02 | 0.02 | 94 | 1008.3 |
| 20260506203016 | 46 | 338 | 0.9 | 3.5 | 0.00 | 0.02 | 0.02 | 94 | 1008.2 |
| 20260506202016 | 46 | 315 | 2.6 | 9.6 | 0.00 | 0.02 | 0.02 | 94 | 1008.1 |
| 20260506201016 | 46 | 338 | 4.3 | 8.7 | 0.00 | 0.02 | 0.02 | 94 | 1008.0 |
| 20260506200017 | 46 | 338 | 2.6 | 7.0 | 0.00 | 0.02 | 0.02 | 94 | 1007.9 |
| 20260506195016 | 46 | 338 | 2.6 | 7.8 | 0.00 | 0.02 | 0.02 | 93 | 1007.9 |
| 20260506194017 | 46 | 315 | 4.3 | 10.4 | 0.00 | 0.02 | 0.02 | 93 | 1007.7 |
| 20260506193036 | 47 | 315 | 5.2 | 10.4 | 0.00 | 0.02 | 0.02 | 93 | 1007.7 |
| 20260506192016 | 47 | 338 | 4.3 | 11.3 | 0.00 | 0.02 | 0.02 | 93 | 1007.6 |
| 20260506191016 | 47 | 315 | 4.3 | 10.4 | 0.00 | 0.02 | 0.02 | 93 | 1007.3 |
| 20260506190036 | 47 | 338 | 4.3 | 10.4 | 0.00 | 0.02 | 0.02 | 92 | 1007.2 |
| 20260506185017 | 48 | 338 | 3.5 | 10.4 | 0.00 | 0.02 | 0.02 | 92 | 1007.1 |
| 20260506184016 | 48 | 0 | 2.6 | 7.0 | 0.00 | 0.02 | 0.02 | 92 | 1006.9 |
| 20260506183016 | 48 | 0 | 3.5 | 8.7 | 0.00 | 0.02 | 0.02 | 92 | 1006.8 |
| 20260506182016 | 48 | 338 | 2.6 | 7.8 | 0.00 | 0.02 | 0.02 | 92 | 1006.8 |
| 20260506181016 | 49 | 338 | 1.7 | 7.8 | 0.00 | 0.02 | 0.02 | 92 | 1006.7 |
| 20260506180016 | 49 | 0 | 4.3 | 10.4 | 0.00 | 0.02 | 0.02 | 92 | 1006.6 |
| 20260506175016 | 49 | 315 | 3.5 | 8.7 | 0.00 | 0.03 | 0.02 | 92 | 1006.6 |
| 20260506174018 | 49 | 0 | 3.5 | 8.7 | 0.00 | 0.03 | 0.02 | 92 | 1006.4 |
| 20260506173039 | 49 | 0 | 5.2 | 13.0 | 0.00 | 0.03 | 0.02 | 92 | 1006.4 |
| 20260506172057 | 49 | 0 | 3.5 | 8.7 | 0.00 | 0.03 | 0.02 | 92 | 1006.4 |
| 20260506171018 | 50 | 338 | 3.5 | 10.4 | 0.00 | 0.03 | 0.02 | 92 | 1006.4 |
| 20260506170019 | 50 | 338 | 1.7 | 5.2 | 0.00 | 0.04 | 0.02 | 92 | 1006.2 |
| 20260506165019 | 50 | 338 | 3.5 | 7.8 | 0.00 | 0.04 | 0.02 | 92 | 1006.2 |
| 20260506164017 | 50 | 315 | 1.7 | 5.2 | 0.00 | 0.04 | 0.02 | 92 | 1006.1 |
| 20260506163017 | 50 | 315 | 3.5 | 7.8 | 0.01 | 0.04 | 0.02 | 93 | 1006.2 |
| 20260506162017 | 50 | 315 | 2.6 | 7.8 | 0.01 | 0.04 | 0.02 | 92 | 1006.2 |
| 20260506161017 | 50 | 338 | 1.7 | 5.2 | 0.01 | 0.04 | 0.02 | 93 | 1006.2 |
| 20260506160017 | 50 | 338 | 1.7 | 6.1 | 0.01 | 0.04 | 0.02 | 92 | 1006.1 |
| 20260506155037 | 50 | 338 | 2.6 | 7.0 | 0.01 | 0.04 | 0.02 | 92 | 1006.1 |
| 20260506154017 | 51 | 315 | 3.5 | 7.8 | 0.01 | 0.04 | 0.02 | 92 | 1006.0 |
| 20260506153018 | 51 | 338 | 3.5 | 7.8 | 0.00 | 0.03 | 0.02 | 92 | 1006.0 |
| 20260506152017 | 51 | 315 | 2.6 | 7.8 | 0.00 | 0.03 | 0.02 | 92 | 1005.9 |
| 20260506151017 | 51 | 338 | 2.6 | 7.0 | 0.00 | 0.04 | 0.02 | 91 | 1005.8 |
| 20260506150019 | 52 | 338 | 1.7 | 6.1 | 0.00 | 0.04 | 0.02 | 91 | 1005.8 |
| 20260506145039 | 52 | 315 | 2.6 | 7.8 | 0.00 | 0.04 | 0.02 | 91 | 1005.7 |
| 20260506144017 | 52 | 315 | 4.3 | 9.6 | 0.00 | 0.04 | 0.02 | 91 | 1005.6 |
| 20260506143019 | 53 | 315 | 3.5 | 7.0 | 0.00 | 0.05 | 0.02 | 89 | 1005.6 |
| 20260506142039 | 54 | 23 | 2.6 | 7.0 | 0.00 | 0.06 | 0.02 | 88 | 1005.5 |
| 20260506141017 | 54 | 338 | 1.7 | 7.0 | 0.00 | 0.06 | 0.02 | 86 | 1005.6 |
| 20260506140017 | 54 | 270 | 0.9 | 3.5 | 0.00 | 0.07 | 0.02 | 87 | 1005.5 |
| 20260506135017 | 54 | 338 | 1.7 | 5.2 | 0.00 | 0.07 | 0.02 | 87 | 1005.5 |
| 20260506134017 | 55 | 23 | 2.6 | 7.0 | 0.00 | 0.07 | 0.02 | 88 | 1005.4 |
| 20260506133017 | 56 | 248 | 2.6 | 6.1 | 0.00 | 0.08 | 0.02 | 88 | 1005.6 |
| 20260506132017 | 54 | 338 | 3.5 | 7.8 | 0.00 | 0.08 | 0.02 | 90 | 1005.4 |
| 20260506131019 | 55 | 315 | 3.5 | 8.7 | 0.00 | 0.09 | 0.02 | 86 | 1005.4 |
| 20260506130017 | 56 | 270 | 1.7 | 5.2 | 0.00 | 0.09 | 0.02 | 84 | 1005.4 |
| 20260506125017 | 56 | 270 | 1.7 | 3.5 | 0.00 | 0.10 | 0.02 | 84 | 1005.3 |
| 20260506124017 | 56 | 225 | 1.7 | 7.0 | 0.00 | 0.12 | 0.02 | 85 | 1005.3 |
| 20260506123017 | 56 | 270 | 4.3 | 8.7 | 0.00 | 0.12 | 0.02 | 85 | 1005.2 |
| 20260506122017 | 57 | 270 | 3.5 | 7.8 | 0.00 | 0.12 | 0.02 | 83 | 1005.3 |
| 20260506121037 | 57 | 248 | 1.7 | 3.5 | 0.00 | 0.12 | 0.02 | 84 | 1005.2 |
| 20260506120017 | 56 | 158 | 3.5 | 7.0 | 0.00 | 0.12 | 0.02 | 85 | 1005.3 |
| 20260506115037 | 57 | 248 | 1.7 | 4.3 | 0.00 | 0.12 | 0.02 | 80 | 1005.2 |
| 20260506114017 | 57 | 225 | 2.6 | 5.2 | 0.00 | 0.12 | 0.02 | 80 | 1005.2 |
| 20260506113037 | 56 | 225 | 2.6 | 6.1 | 0.00 | 0.12 | 0.02 | 84 | 1005.3 |
| 20260506112019 | 56 | 203 | 2.6 | 6.1 | 0.00 | 0.12 | 0.02 | 83 | 1005.3 |
| 20260506111017 | 56 | 203 | 4.3 | 7.8 | 0.00 | 0.12 | 0.02 | 84 | 1005.2 |
| 20260506110037 | 56 | 158 | 4.3 | 7.8 | 0.00 | 0.12 | 0.02 | 82 | 1005.3 |
| 20260506105017 | 57 | 158 | 4.3 | 7.8 | 0.00 | 0.12 | 0.02 | 82 | 1005.4 |
| 20260506104017 | 56 | 158 | 2.6 | 6.1 | 0.00 | 0.12 | 0.02 | 83 | 1005.3 |
| 20260506103018 | 56 | 225 | 3.5 | 7.0 | 0.00 | 0.12 | 0.02 | 83 | 1005.3 |
| 20260506102017 | 56 | 158 | 4.3 | 7.8 | 0.00 | 0.12 | 0.02 | 83 | 1005.2 |
| 20260506101017 | 58 | 203 | 2.6 | 5.2 | 0.00 | 0.12 | 0.02 | 84 | 1005.2 |
| 20260506100037 | 57 | 180 | 4.3 | 7.8 | 0.00 | 0.12 | 0.02 | 82 | 1005.1 |
| 20260506095017 | 56 | 158 | 3.5 | 6.1 | 0.00 | 0.12 | 0.02 | 85 | 1005.0 |
| 20260506094018 | 54 | 180 | 2.6 | 7.0 | 0.00 | 0.12 | 0.02 | 89 | 1005.1 |
| 20260506093017 | 54 | 180 | 2.6 | 7.0 | 0.00 | 0.12 | 0.02 | 88 | 1005.0 |
| 20260506092019 | 54 | 203 | 3.5 | 6.1 | 0.00 | 0.12 | 0.02 | 88 | 1005.1 |
| 20260506091017 | 54 | 158 | 3.5 | 10.4 | 0.00 | 0.12 | 0.02 | 87 | 1005.1 |
| 20260506090017 | 54 | 158 | 4.3 | 8.7 | 0.00 | 0.12 | 0.02 | 86 | 1005.0 |
| 20260506085017 | 55 | 135 | 4.3 | 7.8 | 0.00 | 0.12 | 0.02 | 85 | 1004.8 |
| 20260506084016 | 55 | 158 | 4.3 | 8.7 | 0.00 | 0.12 | 0.02 | 86 | 1004.8 |
| 20260506083018 | 55 | 180 | 3.5 | 7.8 | 0.00 | 0.12 | 0.02 | 87 | 1004.8 |
| 20260506082037 | 55 | 203 | 3.5 | 6.1 | 0.00 | 0.12 | 0.02 | 88 | 1004.7 |
| 20260506081017 | 54 | 203 | 2.6 | 7.0 | 0.00 | 0.12 | 0.02 | 88 | 1004.7 |